This demonstration page uses our WeatherBlox Daily Observations layout. Learn more.

Left ArrowRight Arrow

Hourly Observations for March 6, 2018

Temp ( °F °C ) Dew Point ( °F °C ) Humidity (%) Winds ( mph kmh ) Pressure ( in mb ) Visibility ( mi km ) Precip ( " mm )
12:53 am 00:53 Cloudy 35 1.7 18 -7.8 50 50 WNW 29 46 29.84 1011 10 16 0.00 0.00
1:53 am 01:53 Partly Cloudy 33 0.6 18 -7.8 54 54 WNW 22 35 29.85 1011 10 16 0.00 0.00
2:53 am 02:53 Mostly Cloudy 33 0.6 18 -7.8 54 54 NW 38 61 29.83 1010 10 16 0.00 0.00
3:53 am 03:53 Cloudy with Light Wintry Mix 32 0 20 -6.7 61 61 NW 43 69 29.83 1010 9 14 0.00 0.03
4:53 am 04:53 Partly Cloudy 30 -1.1 20 -6.7 66 66 NW 38 61 29.85 1011 10 16 0.00 0.03
5:53 am 05:53 Windy with Snow Likely 29 -1.7 22 -5.6 75 75 NW 32 52 29.87 1012 7 11 0.00 0.03
6:25 am 06:25 Windy with Snow Likely 28 -2.2 23 -5 81 81 NW 36 57 29.94 1014 2 3 0.00 0.03
6:42 am 06:42 Windy with Snow Likely 27 -3 21 -6 80 80 NW 31 50 29.97 1015 2 2 0.00 0.00
6:53 am 06:53 Windy with Snow Likely 27 -2.8 22 -5.6 81 81 NW 30 48 29.91 1013 2 3 0.00 0.03
7:02 am 07:02 Windy with Snow Likely 27 -3 21 -6 80 80 NW 32 52 30.00 1016 2 3 0.00 0.00
7:12 am 07:12 Windy with Snow Likely 27 -3 21 -6 80 80 NW 33 54 30.00 1016 2 3 0.00 0.00
7:21 am 07:21 Windy with Snow Likely 27 -2.8 22 -5.6 81 81 NW 36 57 30.00 1016 1 1 0.00 0.03
7:29 am 07:29 Windy with Snow Likely 26 -3.3 21 -6.1 81 81 NW 36 57 30.00 1016 1 2 0.00 0.03
7:41 am 07:41 Windy with Snow Likely 27 -2.8 21 -6.1 78 78 NW 29 46 30.00 1016 3 5 0.00 0.03
7:53 am 07:53 Windy with Snow Likely 27 -2.8 21 -6.1 78 78 NW 28 44 29.95 1014 2 3 0.00 0.03
8:09 am 08:09 Windy with Snow Likely 26 -3.3 21 -6.1 81 81 NW 36 57 30.03 1017 1 2 0.00 0.03
8:50 am 08:50 Mostly Cloudy with Snow 27 -3 19 -7 74 74 NW 37 59 30.06 1018 1 1 0.00 0.03
8:53 am 08:53 Mostly Cloudy with Snow 25 -3.9 20 -6.7 81 81 NW 32 52 29.99 1016 1 1 0.00 0.03
9:34 am 09:34 Windy with Snow Likely 27 -3 21 -6 80 80 NW 26 43 30.06 1018 1 2 0.00 0.00
9:53 am 09:53 Windy with Snow Likely 26 -3.3 21 -6.1 81 81 NW 30 48 30.03 1017 1 2 0.00 0.03
10:01 am 10:01 Windy with Snow Likely 26 -3.3 21 -6.1 81 81 NW 32 52 30.09 1019 1 1 0.00 0.03
10:26 am 10:26 Windy with Snow Likely 27 -3 19 -7 74 74 NNW 33 54 30.12 1020 2 2 0.00 0.00
10:33 am 10:33 Windy with Snow Likely 26 -3.3 20 -6.7 78 78 NW 32 52 30.12 1020 2 3 0.00 0.03
10:53 am 10:53 Windy with Snow Likely 26 -3.3 20 -6.7 78 78 NW 30 48 30.07 1018 1 2 0.00 0.03
11:16 am 11:16 Windy with Snow Likely 27 -3 19 -7 74 74 NW 29 46 30.15 1021 3 5 0.00 0.00
11:31 am 11:31 Windy with Snow Likely 26 -3.3 19 -7.2 75 75 NW 35 56 30.15 1021 9 14 0.00 0.03
11:43 am 11:43 Windy with Snow Likely 27 -2.8 19 -7.2 72 72 NNW 33 54 30.15 1021 6 10 0.00 0.03
11:50 am 11:50 Windy with Snow Likely 27 -3 19 -7 74 74 NNW 31 50 30.15 1021 3 4 0.00 0.00
11:53 am 11:53 Windy with Snow Likely 27 -2.8 20 -6.7 75 75 NW 30 48 30.10 1019 2 3 0.00 0.03
12:05 pm 12:05 Windy with Snow Likely 26 -3.3 20 -6.7 78 78 NNW 35 56 30.18 1022 1 1 0.00 0.03
12:12 pm 12:12 Windy with Snow Likely 27 -3 19 -7 74 74 NW 33 54 30.18 1022 2 2 0.00 0.00
12:23 pm 12:23 Windy with Snow Likely 27 -2.8 20 -6.7 75 75 NNW 32 52 30.18 1022 3 5 0.00 0.03
12:37 pm 12:37 Windy with Snow Likely 28 -2.2 20 -6.7 72 72 NW 32 52 30.18 1022 6 10 0.00 0.03
12:53 pm 12:53 Cloudy with Light Wintry Mix 28 -2.2 19 -7.2 69 69 NNW 33 54 30.13 1020 10 16 0.00 0.03
1:03 pm 13:03 Mostly Cloudy with Light Wintry Mix 29 -1.7 20 -6.7 69 69 NW 30 48 30.18 1022 10 16 0.00 0.03
1:53 pm 13:53 Cloudy 29 -1.7 19 -7.2 66 66 NNW 30 48 30.15 1021 10 16 0.00 0.03
2:50 pm 14:50 Cloudy 30 -1 19 -7 64 64 NNW 29 46 30.21 1023 10 16 0.00 0.00
2:53 pm 14:53 Cloudy 30 -1.1 20 -6.7 66 66 NNW 35 56 30.18 1022 10 16 0.00 0.00
3:53 pm 15:53 Cloudy 30 -1.1 20 -6.7 66 66 NNW 29 46 30.20 1023 10 16 0.00 0.00
4:53 pm 16:53 Cloudy 30 -1.1 19 -7.2 64 64 NNW 24 39 30.22 1024 10 16 0.00 0.00
5:53 pm 17:53 Cloudy 28 -2.2 19 -7.2 69 69 NNW 24 39 30.26 1025 10 16 0.00 0.00
6:53 pm 18:53 Cloudy 28 -2.2 18 -7.8 66 66 NNW 25 41 30.29 1026 10 16 0.00 0.00
7:53 pm 19:53 Cloudy 27 -2.8 19 -7.2 72 72 NNW 18 30 30.30 1026 10 16 0.00 0.00
8:30 pm 20:30 Mostly Cloudy 26 -3.3 19 -7.2 75 75 NNW 14 22 30.36 1028 10 16 0.00 0.00
8:39 pm 20:39 Cloudy 26 -3.3 19 -7.2 75 75 NNW 15 24 30.36 1028 10 16 0.00 0.00
8:53 pm 20:53 Cloudy 27 -2.8 19 -7.2 72 72 NNW 15 24 30.31 1027 10 16 0.00 0.00
9:53 pm 21:53 Cloudy 26 -3.3 19 -7.2 75 75 NNW 17 28 30.31 1026 10 16 0.00 0.00
10:53 pm 22:53 Cloudy 27 -2.8 20 -6.7 75 75 N 18 30 30.31 1026 10 16 0.00 0.00
11:53 pm 23:53 Cloudy 26 -3.3 20 -6.7 78 78 N 21 33 30.32 1027 10 16 0.00 0.00

Powered by AerisWeather